PBO Station Position Time Series. Reference Frame : NAM14
Format Version,1.1.0
4-character ID,IVCO
Station name,IVCO_SCGN_CS2000
Begin Date, 2000-03-18
End Date, 2007-06-26
Release Date, 2021-02-19
Reference position, 32.8293811206 North Latitude, -115.5067895377 East Longitude, -53.41752 meters elevation,
Date, North (mm), East (mm), Vertical (mm), North Std. Deviation (mm), East Std. Deviation (mm),              Vertical Std. Deviation (mm), Quality,
2000-03-18,0.00, 0.00, 0.00, 2.92, 2.62, 11.95, repro,
2000-03-19,1.77, -0.28, 5.01, 2.93, 2.66, 11.95, repro,
2000-03-20,-1.07, 1.00, 2.52, 3.39, 2.94, 13.82, repro,
2000-03-21,-0.55, 1.32, 4.46, 3.13, 2.65, 12.63, repro,
2000-03-22,-0.12, -0.29, -5.92, 3.02, 2.65, 12.10, repro,
2000-03-23,-1.32, 0.34, 6.36, 3.09, 2.80, 12.55, repro,
2000-03-24,1.37, -0.16, -2.08, 3.05, 2.73, 12.23, repro,
2000-03-25,-1.34, -0.61, 3.09, 2.87, 2.51, 11.42, repro,
2000-03-26,0.22, -0.29, 6.37, 3.15, 2.66, 12.27, repro,
2000-03-27,-0.40, -0.05, 1.65, 3.09, 2.58, 12.53, repro,
2000-03-28,-2.00, 1.22, 9.03, 2.91, 2.49, 11.57, repro,
2000-03-29,2.03, 0.11, -4.17, 2.95, 2.51, 11.75, repro,
2000-03-30,-0.83, 0.97, -8.08, 2.91, 2.49, 11.56, repro,
2000-03-31,0.88, 0.97, -2.77, 3.03, 2.64, 12.22, repro,
2000-04-01,-0.32, 2.32, 4.64, 2.98, 2.59, 12.02, repro,
2000-04-02,0.46, 1.14, 3.19, 2.99, 2.56, 11.99, repro,
2000-04-03,0.69, -0.26, -5.68, 2.89, 2.46, 11.40, repro,
2000-04-04,0.15, 0.70, -5.11, 2.94, 2.49, 11.61, repro,
2000-04-05,1.01, 0.08, 5.90, 3.48, 3.13, 14.23, repro,
2000-04-06,1.40, -1.62, -0.96, 3.28, 2.78, 12.90, repro,
2000-04-07,-0.77, 1.32, -1.00, 3.14, 2.65, 12.51, repro,
2000-04-08,0.29, 0.79, -5.85, 2.85, 2.54, 11.60, repro,
2000-04-09,0.11, 0.10, 12.18, 2.89, 2.54, 11.71, repro,
2000-04-10,0.62, -1.33, -0.17, 2.91, 2.57, 11.72, repro,
2000-04-11,-1.01, -0.61, 2.88, 2.79, 2.42, 11.28, repro,
2000-04-12,-0.89, -0.03, 7.88, 3.01, 2.52, 12.20, repro,
2000-04-13,2.25, 0.17, -10.56, 2.88, 2.53, 11.77, repro,
2000-04-14,-1.57, 1.04, -2.25, 2.96, 2.56, 12.32, repro,
2000-04-15,3.14, -0.55, 0.57, 2.90, 2.51, 11.47, repro,
2000-04-16,1.36, 0.29, -1.11, 2.83, 2.51, 11.65, repro,
2000-04-17,-0.56, 2.01, 9.55, 2.89, 2.55, 11.54, repro,
2000-04-18,1.04, 2.40, -3.49, 3.11, 2.80, 12.71, repro,
2000-04-19,-1.52, 0.90, 7.38, 2.83, 2.49, 11.57, repro,
2000-04-20,1.47, -0.29, -5.58, 2.94, 2.48, 11.69, repro,
2000-04-21,-1.07, -0.38, 3.01, 2.89, 2.47, 11.67, repro,
2000-04-22,-0.58, 0.55, 5.22, 2.89, 2.50, 11.69, repro,
2000-04-23,0.44, 0.72, 11.27, 2.81, 2.46, 11.38, repro,
2000-04-24,0.41, 0.73, 5.56, 3.32, 2.72, 13.11, repro,
2000-10-07,0.34, 4.30, 12.94, 1.95, 1.75, 7.92, repro,
2000-10-08,-0.53, 2.11, 15.28, 3.13, 2.94, 13.29, repro,
2000-10-17,2.52, 1.74, 18.56, 4.08, 3.39, 15.34, repro,
2000-10-18,1.64, -0.88, 21.81, 2.09, 1.93, 8.39, repro,
2000-10-19,-1.42, 1.16, 21.24, 2.09, 1.91, 8.76, repro,
2000-10-20,0.81, 3.19, 3.16, 2.21, 1.96, 8.91, repro,
2000-10-21,2.91, 2.65, 2.70, 2.20, 1.96, 8.54, repro,
2000-10-22,1.03, 0.85, 12.56, 2.12, 1.86, 8.47, repro,
2000-10-23,2.28, 2.35, 17.59, 2.16, 1.89, 8.93, repro,
2000-10-24,2.33, 3.63, 6.90, 2.03, 1.77, 8.18, repro,
2000-10-25,1.84, 3.07, 4.07, 1.99, 1.75, 7.94, repro,
2000-10-26,1.32, 2.11, 5.11, 2.04, 1.77, 8.20, repro,
2000-10-27,0.86, 0.98, 6.96, 2.07, 1.85, 8.40, repro,
2000-10-28,0.76, 1.85, 12.75, 2.09, 1.81, 8.33, repro,
2000-10-29,0.91, 2.48, 6.27, 2.00, 1.76, 8.04, repro,
2000-10-30,2.12, 4.50, 16.22, 2.07, 1.87, 8.39, repro,
2000-10-31,0.24, 2.87, 8.00, 2.08, 1.84, 8.33, repro,
2000-11-01,0.96, 1.81, 2.12, 2.05, 1.84, 8.39, repro,
2000-11-02,0.87, 2.22, 7.29, 1.99, 1.85, 8.13, repro,
2000-11-03,2.07, 2.49, 9.98, 2.17, 1.98, 8.64, repro,
2000-11-04,2.03, 2.91, 15.82, 2.02, 1.80, 8.11, repro,
2000-11-05,0.90, 2.46, 7.87, 2.12, 1.88, 8.45, repro,
2000-11-06,-0.07, 2.78, 11.03, 2.08, 1.88, 8.45, repro,
2000-11-07,0.81, 3.21, 6.96, 2.13, 1.90, 8.39, repro,
2000-11-08,1.16, 2.38, 3.75, 2.03, 1.87, 8.11, repro,
2000-11-09,1.34, 2.98, 16.89, 2.19, 1.94, 8.60, repro,
2000-11-10,3.95, 1.86, -8.19, 2.30, 2.02, 9.30, repro,
2000-11-11,0.40, 2.63, 9.29, 2.01, 1.80, 8.12, repro,
2000-11-12,1.57, 1.83, 12.88, 1.97, 1.78, 8.01, repro,
2000-11-13,1.90, 3.37, 5.84, 2.05, 1.91, 8.17, repro,
2000-11-14,1.21, 2.49, 9.85, 2.09, 2.01, 8.26, repro,
2000-11-15,0.87, 2.64, 11.92, 2.15, 1.94, 8.43, repro,
2000-11-16,1.65, 3.21, 12.38, 2.15, 1.94, 8.51, repro,
2000-11-17,0.89, 3.01, 5.52, 2.02, 1.85, 8.09, repro,
2000-11-18,1.64, 4.06, 6.73, 2.05, 1.90, 8.12, repro,
2000-11-19,0.89, 3.59, 5.47, 2.11, 1.92, 8.47, repro,
2000-11-20,0.46, 2.58, 6.85, 2.25, 2.02, 8.83, repro,
2000-11-21,0.28, 3.39, 6.45, 2.11, 1.95, 8.45, repro,
2000-11-22,0.31, 4.02, 3.11, 2.06, 1.91, 8.23, repro,
2000-11-23,1.26, 3.46, 11.19, 2.06, 1.87, 8.28, repro,
2000-11-24,1.70, 2.86, 9.76, 2.08, 1.86, 8.32, repro,
2000-11-25,1.56, 3.66, 8.80, 2.12, 2.02, 8.89, repro,
2000-11-26,0.97, 2.90, 12.22, 2.13, 2.01, 8.90, repro,
2000-11-27,1.92, 4.23, 6.43, 2.27, 2.06, 9.14, repro,
2000-11-28,0.75, 4.22, 4.89, 2.09, 1.96, 8.47, repro,
2000-11-29,0.92, 4.35, 2.18, 2.18, 2.07, 8.76, repro,
2000-11-30,0.53, 3.45, -0.05, 2.10, 1.94, 8.37, repro,
2000-12-01,-1.56, 2.65, -6.15, 5.01, 5.07, 20.35, repro,
2000-12-11,29.72, -7.61, -151.96, 101.98, 125.68, 437.88, repro,
2000-12-12,0.33, 2.03, 14.10, 2.03, 1.84, 8.33, repro,
2000-12-13,0.35, 2.97, 2.94, 2.02, 1.76, 8.06, repro,
2000-12-14,-0.67, 4.45, 0.11, 1.97, 1.82, 8.18, repro,
2000-12-15,0.88, 3.52, -2.54, 1.96, 1.80, 8.11, repro,
2000-12-16,0.15, 3.65, -4.81, 1.96, 1.80, 8.07, repro,
2000-12-17,0.65, 2.79, 3.29, 2.20, 1.94, 9.07, repro,
2000-12-18,0.85, 2.11, -8.50, 2.01, 1.84, 8.15, repro,
2000-12-19,1.32, 3.12, -5.37, 2.25, 2.04, 9.36, repro,
2000-12-20,0.50, 3.13, -3.04, 1.96, 1.82, 8.04, repro,
2000-12-21,-2.96, -4.69, -3.82, 11.95, 9.59, 38.27, repro,
2000-12-22,-0.27, 3.19, -2.16, 1.98, 1.78, 7.92, repro,
2000-12-23,0.09, 3.12, -4.45, 2.03, 1.90, 8.23, repro,
2000-12-24,0.28, 2.91, -5.80, 1.95, 1.75, 7.82, repro,
2000-12-25,0.53, 2.94, -0.58, 1.94, 1.75, 7.82, repro,
2000-12-26,0.20, 2.32, -8.57, 1.94, 1.80, 8.00, repro,
2000-12-27,0.15, 3.69, -10.42, 2.00, 1.77, 8.08, repro,
2000-12-28,0.44, 2.85, -1.91, 2.02, 1.79, 8.05, repro,
2000-12-29,0.68, 3.33, 0.33, 2.03, 1.79, 8.23, repro,
2000-12-30,0.65, 2.51, -2.89, 2.01, 1.83, 8.36, repro,
2000-12-31,0.43, 3.30, -0.18, 2.05, 1.89, 8.57, repro,
2001-01-01,0.13, 3.06, -1.05, 2.13, 1.91, 8.86, repro,
2001-01-02,0.11, 2.58, -10.02, 2.14, 1.90, 9.02, repro,
2001-01-03,0.48, 2.57, -4.63, 2.00, 1.90, 8.42, repro,
2001-01-04,0.73, 2.89, -2.67, 1.99, 1.81, 8.14, repro,
2001-01-05,2.10, 2.21, 5.45, 2.02, 1.85, 8.30, repro,
2001-01-06,0.36, 2.79, 0.88, 2.03, 1.90, 8.47, repro,
2001-01-07,0.91, 2.76, 1.96, 2.04, 1.78, 8.27, repro,
2001-01-08,0.50, 2.46, 2.76, 2.03, 1.90, 8.53, repro,
2001-01-09,-0.02, 2.62, 3.36, 1.98, 1.77, 8.10, repro,
2001-01-10,0.92, 2.86, 7.18, 2.04, 1.81, 8.17, repro,
2001-01-11,-2.13, 2.09, 2.48, 1.99, 1.83, 8.26, repro,
2001-01-12,2.06, 2.64, -0.38, 2.03, 1.86, 8.31, repro,
2001-01-13,0.76, 3.36, 1.70, 2.07, 1.80, 8.22, repro,
2001-01-14,-0.14, 2.12, -0.92, 2.21, 2.02, 8.93, repro,
2001-01-15,0.16, 2.99, -2.15, 2.18, 2.01, 8.91, repro,
2001-01-16,-0.03, 3.64, 1.39, 2.02, 1.86, 8.31, repro,
2001-01-17,0.71, 2.42, -5.24, 2.10, 1.83, 8.42, repro,
2001-01-18,0.77, 1.12, 2.03, 2.05, 1.85, 8.38, repro,
2001-01-19,-0.55, 2.98, -5.44, 2.09, 2.11, 8.74, repro,
2001-01-20,0.58, 2.66, -7.68, 2.00, 1.89, 8.36, repro,
2001-01-21,-0.29, 1.47, -2.13, 1.99, 1.81, 8.09, repro,
2001-01-22,-0.07, 3.25, 0.42, 1.97, 1.82, 8.12, repro,
2001-01-23,-1.34, 1.99, -2.14, 2.39, 2.30, 10.59, repro,
2001-01-24,0.15, 1.70, 0.31, 2.17, 2.00, 8.72, repro,
2001-01-25,-0.77, 3.96, -11.77, 2.24, 1.96, 9.20, repro,
2001-01-26,0.39, 2.03, -2.06, 2.23, 1.93, 9.09, repro,
2001-01-27,0.46, 1.67, 3.54, 2.10, 1.92, 8.75, repro,
2001-01-28,0.22, 1.74, -4.36, 2.14, 1.96, 8.88, repro,
2001-01-29,1.00, 2.59, -0.90, 1.95, 1.75, 7.84, repro,
2001-01-30,0.49, 3.69, -5.13, 1.97, 1.76, 7.93, repro,
2001-01-31,0.01, 2.33, -4.03, 2.15, 2.07, 9.08, repro,
2001-02-01,0.55, 2.30, -1.83, 1.97, 1.76, 7.98, repro,
2001-02-02,1.23, 2.46, -2.63, 2.04, 1.82, 8.30, repro,
2001-02-03,1.95, 2.34, -4.57, 2.01, 1.84, 8.13, repro,
2001-02-04,0.69, 2.11, -0.97, 2.00, 1.80, 8.04, repro,
2001-02-05,-0.26, 3.40, -3.21, 2.01, 1.83, 8.10, repro,
2001-02-06,0.88, 2.76, -11.84, 2.03, 1.81, 8.16, repro,
2001-02-07,1.54, -0.11, -0.27, 1.99, 1.79, 8.06, repro,
2001-02-08,0.67, 2.57, -0.51, 2.08, 1.97, 8.54, repro,
2001-02-09,0.52, 2.14, 1.38, 2.15, 2.06, 8.73, repro,
2001-02-10,0.73, 3.23, 0.28, 1.98, 1.76, 7.97, repro,
2001-02-11,2.91, 10.56, 3.55, 4.79, 4.79, 19.49, repro,
2001-02-15,1.02, 3.30, -6.53, 2.02, 1.85, 8.13, repro,
2001-02-16,1.12, 1.91, -3.04, 2.38, 2.24, 9.73, repro,
2001-02-17,0.05, 3.55, -0.98, 2.17, 2.01, 8.68, repro,
2001-02-18,-0.07, 1.28, -3.06, 1.99, 1.80, 8.01, repro,
2001-02-19,-1.56, 2.83, 4.95, 2.10, 1.79, 8.40, repro,
2001-02-20,1.83, 3.85, 0.21, 2.11, 1.95, 8.46, repro,
2001-02-21,0.37, 3.11, -2.86, 2.10, 1.90, 8.38, repro,
2001-02-22,1.56, 2.95, -5.24, 1.98, 1.80, 8.05, repro,
2001-02-23,-1.43, 3.29, 5.67, 2.02, 1.86, 8.19, repro,
2001-02-24,-0.52, 2.29, 0.36, 2.22, 2.01, 8.76, repro,
2001-02-25,0.11, 2.83, -5.62, 2.04, 1.87, 8.27, repro,
2001-02-26,0.17, 2.22, -4.33, 2.19, 2.08, 8.77, repro,
2001-02-27,0.32, 2.47, -0.72, 2.02, 1.82, 8.40, repro,
2001-02-28,1.41, 1.84, -0.60, 2.03, 1.87, 8.51, repro,
2001-03-01,-0.50, -0.25, 10.52, 2.40, 2.20, 9.67, repro,
2001-03-02,0.60, 2.18, -4.67, 2.30, 2.21, 9.39, repro,
2001-03-03,0.31, 2.70, 3.44, 2.19, 1.95, 8.82, repro,
2001-03-04,-0.15, 3.26, 0.11, 2.02, 1.78, 8.25, repro,
2001-03-05,-0.42, 2.87, -4.21, 2.10, 1.92, 8.43, repro,
2001-03-06,-0.47, 3.11, -6.81, 1.98, 1.85, 8.18, repro,
2001-03-07,-0.14, 0.68, 5.40, 2.06, 1.86, 8.48, repro,
2001-03-08,0.82, 3.22, 7.45, 2.10, 1.86, 8.51, repro,
2001-03-09,-0.32, 3.54, -5.20, 2.06, 1.88, 8.61, repro,
2001-03-10,3.15, 2.54, -4.17, 2.25, 2.05, 9.00, repro,
2001-03-11,0.22, 2.29, 10.61, 2.26, 2.11, 9.03, repro,
2001-03-12,-0.07, 2.49, 9.35, 2.15, 1.96, 8.64, repro,
2001-03-13,-0.18, 4.00, 6.58, 2.14, 1.95, 8.71, repro,
2001-03-14,0.58, 2.92, -0.44, 2.24, 2.12, 9.62, repro,
2001-03-15,0.80, 2.90, 2.70, 1.98, 1.79, 7.97, repro,
2001-03-16,0.49, 4.18, 9.20, 2.03, 1.94, 8.34, repro,
2001-03-17,-0.94, 3.13, 2.29, 2.01, 1.85, 8.03, repro,
2001-03-18,0.05, 2.90, -6.09, 1.96, 1.81, 7.99, repro,
2001-03-19,0.66, 2.53, -6.62, 1.95, 1.77, 7.84, repro,
2001-03-20,0.62, 2.36, -3.15, 1.94, 1.76, 7.81, repro,
2001-03-21,-0.47, 2.17, -0.22, 1.97, 1.79, 7.97, repro,
2001-03-22,0.15, 3.09, -2.67, 1.97, 1.79, 7.98, repro,
2001-03-23,-0.29, 2.87, 3.06, 1.98, 1.78, 7.93, repro,
2001-03-24,-0.41, 2.14, -0.40, 2.01, 1.81, 8.02, repro,
2001-03-25,-1.09, 1.40, -1.80, 1.98, 1.82, 7.97, repro,
2001-03-26,0.48, 1.25, -7.06, 2.05, 1.82, 8.15, repro,
2001-03-27,-0.73, 2.35, 1.74, 2.09, 1.83, 8.37, repro,
2001-03-28,0.69, 2.71, 3.73, 2.08, 1.83, 8.30, repro,
2001-03-29,-1.90, 3.28, 1.24, 1.98, 1.80, 7.97, repro,
2001-03-30,-0.62, 1.67, -9.04, 2.36, 2.22, 9.73, repro,
2001-03-31,-0.23, 3.43, 2.13, 2.02, 1.81, 8.08, repro,
2001-04-01,0.21, 2.81, 3.71, 1.97, 1.78, 7.90, repro,
2001-04-02,-0.20, 1.86, 9.84, 1.98, 1.78, 8.00, repro,
2001-04-03,0.19, 2.61, 4.41, 2.03, 1.85, 8.08, repro,
2001-04-04,0.01, 2.25, 4.07, 1.98, 1.85, 8.12, repro,
2001-04-05,1.21, 3.14, 2.70, 1.99, 1.84, 8.01, repro,
2001-04-06,-0.12, 3.41, 2.68, 1.99, 1.80, 7.93, repro,
2001-04-07,-0.11, 3.02, 3.54, 2.00, 1.83, 8.05, repro,
2001-04-08,0.23, 0.76, 1.95, 2.05, 1.90, 8.37, repro,
2001-04-09,0.24, 2.95, 10.03, 2.01, 1.85, 8.03, repro,
2001-04-10,0.50, 3.00, 4.79, 2.10, 1.85, 8.53, repro,
2001-04-11,-0.84, 3.10, 4.95, 2.02, 1.86, 8.17, repro,
2001-04-12,-0.06, 4.06, 3.27, 1.97, 1.81, 8.04, repro,
2001-04-13,-1.04, 2.41, -0.71, 1.98, 1.80, 8.00, repro,
2001-04-14,0.59, 2.39, 8.52, 2.04, 1.93, 8.20, repro,
2001-04-15,0.43, 1.47, 1.99, 2.04, 1.93, 8.22, repro,
2001-04-16,0.29, 2.02, 6.43, 2.08, 2.00, 8.36, repro,
2001-04-17,-0.65, 0.60, -1.00, 2.08, 1.89, 8.52, repro,
2001-04-18,2.06, 2.17, 3.84, 2.43, 2.33, 10.11, repro,
2001-04-19,-0.82, 1.42, 10.14, 1.96, 1.79, 7.96, repro,
2001-04-20,0.54, 0.06, 0.81, 2.12, 1.98, 8.65, repro,
2001-04-21,1.62, 4.76, 25.87, 1.98, 1.85, 8.20, repro,
2001-04-22,0.53, 2.35, 1.03, 2.04, 1.85, 8.17, repro,
2001-04-23,1.22, 3.70, 4.86, 2.03, 1.84, 8.20, repro,
2001-04-24,1.99, 2.77, 10.62, 2.31, 1.98, 9.10, repro,
2001-04-25,1.93, 2.03, 14.78, 2.17, 1.91, 8.73, repro,
2001-04-26,0.22, 3.93, 12.15, 1.96, 1.78, 8.04, repro,
2001-04-27,1.50, 2.82, 13.90, 2.12, 2.05, 8.64, repro,
2001-04-28,0.58, 3.07, 11.92, 1.94, 1.75, 7.79, repro,
2001-04-29,1.00, 2.81, 15.63, 1.95, 1.79, 7.88, repro,
2001-04-30,2.06, 1.40, 12.23, 2.03, 1.90, 8.14, repro,
2001-05-01,1.15, 2.12, 9.60, 1.99, 1.84, 7.93, repro,
2001-05-02,0.21, 2.10, 20.43, 1.92, 1.72, 7.70, repro,
2001-05-03,-0.58, 2.17, 13.65, 1.92, 1.73, 7.74, repro,
2001-05-04,1.13, 2.92, 9.25, 1.92, 1.73, 7.77, repro,
2001-05-05,0.52, 2.69, 9.08, 1.90, 1.71, 7.64, repro,
2001-05-06,-0.24, 2.41, 9.26, 1.93, 1.73, 7.73, repro,
2001-05-07,1.22, 4.60, 11.85, 1.95, 1.79, 7.85, repro,
2001-05-08,0.55, 3.70, 9.25, 1.95, 1.80, 7.86, repro,
2001-05-09,0.08, 3.45, 9.79, 2.15, 1.95, 8.62, repro,
2001-05-10,0.44, 2.23, 7.70, 1.91, 1.74, 7.74, repro,
2001-05-11,0.15, 2.58, 10.64, 1.95, 1.76, 7.90, repro,
2001-05-12,-0.61, 1.60, 7.97, 1.97, 1.81, 8.01, repro,
2001-05-13,-0.78, 2.10, 7.72, 1.95, 1.79, 7.90, repro,
2001-05-14,0.32, 2.77, 9.63, 1.93, 1.73, 7.80, repro,
2001-05-15,0.54, 3.50, 15.92, 1.94, 1.73, 7.78, repro,
2001-05-16,0.47, 2.10, 9.38, 1.95, 1.79, 7.88, repro,
2001-05-17,-0.82, 2.71, 9.90, 2.00, 1.86, 8.11, repro,
2001-05-18,0.17, 2.45, 16.44, 1.93, 1.72, 7.77, repro,
2001-05-19,-0.74, 2.11, 19.56, 1.94, 1.74, 7.87, repro,
2001-05-20,-0.50, 2.68, 12.71, 1.94, 1.72, 7.78, repro,
2001-05-21,-1.10, 0.87, 16.72, 1.91, 1.74, 7.80, repro,
2001-05-22,-0.08, 1.80, 15.68, 1.95, 1.80, 8.04, repro,
2001-05-23,-0.44, 1.80, 18.91, 1.94, 1.75, 7.94, repro,
2001-05-24,0.25, 2.42, 17.48, 1.93, 1.74, 7.84, repro,
2001-05-25,1.06, 1.78, 15.46, 1.94, 1.73, 7.82, repro,
2001-05-26,2.35, 3.03, 17.65, 1.92, 1.73, 7.76, repro,
2001-05-27,1.06, 2.50, 21.18, 1.98, 1.76, 8.05, repro,
2001-05-28,-0.79, 2.68, 19.34, 1.96, 1.79, 7.94, repro,
2001-05-29,0.80, 2.54, 17.47, 1.97, 1.75, 7.98, repro,
2001-05-30,-0.25, 2.11, 14.31, 1.98, 1.74, 7.95, repro,
2001-05-31,0.62, 2.48, 18.29, 1.94, 1.74, 7.79, repro,
2001-06-01,1.08, 2.45, 16.82, 1.93, 1.73, 7.79, repro,
2001-06-02,-1.20, 1.57, 18.46, 2.03, 1.92, 8.44, repro,
2001-06-03,0.09, 2.95, 17.94, 1.96, 1.80, 8.02, repro,
2001-06-04,-1.34, 1.88, 24.95, 1.97, 1.79, 7.86, repro,
2001-06-05,-0.70, 2.53, 21.78, 1.95, 1.76, 7.94, repro,
2001-06-06,0.13, 2.07, 19.69, 1.99, 1.76, 8.11, repro,
2001-06-07,-0.18, 2.16, 27.96, 2.01, 1.83, 8.12, repro,
2001-06-09,0.46, 3.62, 16.59, 1.98, 1.80, 8.14, repro,
2001-06-10,-0.23, 4.84, 11.50, 2.00, 1.78, 8.14, repro,
2001-06-11,0.26, 3.16, 20.60, 2.00, 1.81, 8.21, repro,
2001-06-12,-0.80, 2.53, 19.97, 2.03, 1.80, 8.24, repro,
2001-06-13,-2.00, 2.88, 22.68, 1.98, 1.80, 8.12, repro,
2001-06-14,-1.05, 2.78, 16.97, 1.95, 1.74, 7.93, repro,
2001-06-15,-0.79, 3.15, 3.40, 2.02, 1.80, 8.17, repro,
2001-06-16,-0.56, 3.32, 9.57, 2.01, 1.81, 8.23, repro,
2001-06-17,0.50, 2.96, 14.07, 2.02, 1.81, 8.28, repro,
2001-06-18,-0.21, 3.80, 16.69, 2.01, 1.77, 8.05, repro,
2001-06-19,-3.26, 1.62, 6.31, 2.00, 1.81, 8.05, repro,
2001-06-20,-1.51, 1.71, 10.56, 2.04, 1.86, 8.36, repro,
2001-06-21,-0.38, 2.29, 17.03, 2.02, 1.80, 8.00, repro,
2001-06-22,0.66, 3.03, 13.67, 1.95, 1.74, 7.80, repro,
2001-06-23,3.05, 3.15, 9.13, 2.10, 1.95, 8.52, repro,
2001-06-24,1.18, 1.79, 25.30, 2.01, 1.83, 7.99, repro,
2001-06-25,0.51, 3.35, 13.62, 1.91, 1.71, 7.66, repro,
2001-06-26,0.59, 3.08, 21.63, 1.91, 1.73, 7.69, repro,
2001-06-27,0.40, 4.23, 8.19, 1.98, 1.77, 7.96, repro,
2001-06-28,-0.80, 1.57, 13.37, 1.91, 1.72, 7.67, repro,
2001-06-29,0.32, 2.99, 7.57, 2.04, 1.78, 8.15, repro,
2001-06-30,0.74, 3.15, 14.07, 1.93, 1.72, 7.75, repro,
2001-07-01,0.05, 2.15, 12.08, 1.92, 1.74, 7.73, repro,
2001-07-02,-0.60, 3.39, 13.79, 1.97, 1.81, 7.92, repro,
2001-07-03,-0.08, 3.76, 9.63, 1.94, 1.79, 7.84, repro,
2001-07-04,0.27, 3.78, 8.99, 1.93, 1.74, 7.81, repro,
2001-07-05,1.98, 3.19, 9.91, 1.93, 1.75, 7.86, repro,
2001-07-06,-0.48, 0.24, 5.39, 1.95, 1.82, 7.92, repro,
2001-07-07,1.08, 3.49, 2.58, 1.95, 1.78, 7.91, repro,
2001-07-08,-1.19, 1.02, 6.97, 1.92, 1.73, 7.67, repro,
2001-07-09,1.08, 3.82, -0.42, 1.94, 1.75, 7.79, repro,
2001-07-10,0.86, 2.97, 4.53, 2.08, 1.88, 8.44, repro,
2001-07-11,0.34, 3.18, 2.57, 1.97, 1.76, 7.88, repro,
2001-07-12,-0.02, 3.73, 6.00, 1.97, 1.74, 7.91, repro,
2001-07-13,0.59, 4.89, 7.67, 2.43, 2.33, 9.81, repro,
2001-07-14,-0.44, 1.91, 10.22, 2.06, 1.88, 8.47, repro,
2001-07-15,0.34, 3.35, 15.31, 1.96, 1.78, 7.83, repro,
2001-07-16,-0.02, 2.82, 8.91, 1.93, 1.73, 7.72, repro,
2001-07-17,0.56, 2.30, 8.43, 1.91, 1.73, 7.69, repro,
2001-07-18,0.12, 2.56, 9.72, 1.96, 1.81, 8.05, repro,
2001-07-19,0.63, 2.89, -1.78, 1.96, 1.78, 7.92, repro,
2001-07-20,0.52, 3.23, 3.43, 1.99, 1.79, 8.11, repro,
2001-07-21,0.38, 3.39, 6.97, 1.93, 1.74, 7.80, repro,
2001-07-22,-0.13, 3.26, 7.52, 1.97, 1.74, 7.85, repro,
2001-07-23,-0.13, 2.93, 13.55, 1.95, 1.78, 7.85, repro,
2001-07-24,1.40, 2.90, 11.64, 2.00, 1.76, 7.90, repro,
2001-07-25,1.19, 1.78, 4.62, 1.98, 1.80, 8.07, repro,
2001-07-26,0.74, 3.74, 3.10, 2.04, 1.85, 8.41, repro,
2001-07-27,0.19, 1.29, 1.39, 2.03, 1.89, 8.27, repro,
2001-07-28,2.00, 4.82, 1.31, 2.05, 1.82, 8.08, repro,
2001-07-29,0.98, 3.85, 11.90, 2.05, 1.88, 8.24, repro,
2001-07-30,-0.40, 1.69, 13.86, 2.16, 1.92, 8.53, repro,
2001-07-31,1.79, 0.31, 5.05, 2.16, 2.04, 8.79, repro,
2001-08-01,1.52, 3.85, 8.98, 2.01, 1.81, 8.00, repro,
2001-08-02,0.87, 4.27, -9.04, 2.00, 1.79, 7.93, repro,
2001-08-03,-0.59, 4.32, 13.21, 2.21, 1.91, 8.70, repro,
2001-08-04,1.17, 5.10, 7.75, 2.10, 1.86, 8.36, repro,
2001-08-05,2.93, 1.64, -0.06, 2.16, 1.96, 8.62, repro,
2001-08-06,-0.13, 3.01, 10.42, 2.09, 1.87, 8.26, repro,
2001-08-07,-0.29, 2.51, 8.63, 2.34, 2.13, 9.19, repro,
2001-08-08,2.06, 3.78, 18.64, 2.15, 1.96, 8.56, repro,
2001-08-09,0.73, 1.77, 16.04, 2.15, 1.95, 8.54, repro,
2001-08-10,1.11, 2.70, 5.63, 2.30, 2.05, 9.15, repro,
2001-08-11,0.67, 3.61, 6.94, 2.03, 1.77, 8.08, repro,
2001-08-12,0.18, 2.10, 15.08, 2.02, 1.76, 8.07, repro,
2001-08-13,2.99, 3.21, 6.63, 2.06, 1.78, 8.11, repro,
2001-08-14,-0.57, 4.33, 11.58, 2.04, 1.84, 7.95, repro,
2001-08-15,-0.11, 3.25, 6.53, 2.25, 2.02, 8.77, repro,
2001-08-16,-0.89, 5.55, 16.74, 2.11, 1.83, 8.45, repro,
2001-08-17,-0.10, 6.39, 9.49, 2.07, 1.81, 8.22, repro,
2001-08-18,1.21, 5.34, -0.35, 2.13, 1.87, 8.22, repro,
2001-08-19,2.51, 4.10, 15.55, 2.05, 1.81, 7.87, repro,
2001-08-20,2.01, 6.69, 18.14, 2.27, 1.94, 8.85, repro,
2001-08-21,0.63, 2.19, 17.77, 2.21, 1.94, 8.60, repro,
2001-08-22,-0.46, 4.72, 4.10, 2.12, 1.85, 8.21, repro,
2001-08-23,1.83, 3.98, 2.33, 2.06, 1.76, 8.18, repro,
2001-08-24,0.86, 5.16, 12.37, 2.16, 1.88, 8.36, repro,
2001-08-25,1.39, 4.58, 15.18, 2.05, 1.78, 8.17, repro,
2001-08-26,2.48, 4.62, 8.23, 2.28, 2.05, 9.23, repro,
2001-08-27,3.04, 5.80, 7.18, 2.16, 1.87, 8.60, repro,
2001-08-28,3.27, 4.77, 6.24, 2.34, 2.13, 9.21, repro,
2001-08-29,-0.42, 7.82, 0.58, 2.22, 1.92, 8.66, repro,
2001-08-30,0.27, 5.64, 3.98, 2.25, 1.96, 8.80, repro,
2001-08-31,2.49, 5.22, 12.44, 2.36, 2.00, 8.99, repro,
2001-09-01,0.20, 4.76, 7.94, 2.08, 1.84, 8.34, repro,
2001-09-02,1.13, 4.86, 7.70, 2.19, 2.01, 8.85, repro,
2001-09-03,1.97, 3.80, 7.25, 2.06, 1.78, 8.16, repro,
2001-09-04,1.33, 2.92, 3.00, 2.13, 1.90, 8.62, repro,
2001-09-05,0.55, 6.50, 20.18, 2.27, 2.12, 9.26, repro,
2001-09-06,0.99, 4.25, 20.89, 2.11, 1.91, 8.58, repro,
2001-09-07,1.95, 4.27, 9.57, 1.97, 1.82, 7.97, repro,
2001-09-08,0.83, 5.07, 10.27, 1.97, 1.77, 7.90, repro,
2001-09-09,0.81, 4.86, 7.91, 2.03, 1.82, 8.09, repro,
2001-09-10,0.34, 3.37, -1.29, 2.06, 1.86, 8.10, repro,
2001-09-11,0.25, 3.44, 11.43, 2.02, 1.85, 8.13, repro,
2001-09-12,1.07, 5.62, 10.24, 2.06, 1.94, 8.37, repro,
2001-09-13,-0.09, 3.07, 18.08, 2.00, 1.81, 8.03, repro,
2001-09-14,0.34, 5.77, 13.42, 1.97, 1.75, 7.83, repro,
2001-09-15,-1.23, 4.30, 7.01, 1.97, 1.73, 7.79, repro,
2001-09-16,-0.39, 6.77, 6.07, 2.28, 1.92, 8.81, repro,
2001-09-17,-0.29, 5.46, 16.26, 1.98, 1.77, 7.87, repro,
2001-09-18,1.31, 4.14, 12.12, 1.99, 1.79, 7.87, repro,
2001-09-19,-0.25, 3.89, 14.70, 1.97, 1.76, 7.88, repro,
2001-09-20,0.42, 5.37, 16.83, 2.06, 1.81, 8.18, repro,
2001-09-21,0.36, 3.59, 9.08, 1.95, 1.73, 7.80, repro,
2001-09-22,1.50, 4.17, 17.13, 1.94, 1.69, 7.74, repro,
2001-09-23,0.70, 4.12, 8.67, 1.97, 1.75, 7.90, repro,
2001-09-24,0.59, 4.20, 7.44, 1.93, 1.68, 7.65, repro,
2001-09-25,0.80, 3.81, 14.43, 2.07, 1.79, 8.22, repro,
2001-09-26,0.80, 4.50, 16.75, 2.34, 2.23, 9.61, repro,
2001-09-27,1.03, 5.41, 17.99, 2.02, 1.82, 8.08, repro,
2001-09-28,-0.46, 4.21, 16.33, 1.99, 1.76, 7.92, repro,
2001-09-29,0.10, 5.18, 9.61, 2.05, 1.85, 8.18, repro,
2001-09-30,0.73, 5.14, 8.13, 2.04, 1.89, 8.54, repro,
2001-10-01,4.08, 5.42, 15.51, 2.02, 1.78, 7.90, repro,
2001-10-02,0.33, 5.47, 17.86, 1.96, 1.72, 7.85, repro,
2001-10-03,0.48, 3.62, 10.35, 2.06, 1.82, 8.29, repro,
2001-10-04,2.38, 3.45, 11.90, 2.21, 1.83, 8.71, repro,
2001-10-05,1.25, 3.77, 12.69, 2.05, 1.74, 8.08, repro,
2001-10-06,-0.07, 6.77, 14.25, 2.02, 1.76, 7.88, repro,
2001-10-07,1.30, 2.67, 6.23, 2.08, 1.86, 8.33, repro,
2001-10-08,1.34, 0.88, 6.13, 2.04, 1.76, 8.09, repro,
2001-10-09,-0.34, 4.72, 11.60, 2.03, 1.74, 8.03, repro,
2001-10-10,0.37, 4.49, 4.07, 2.06, 1.76, 8.17, repro,
2001-10-11,1.50, 4.03, 7.88, 1.95, 1.68, 7.75, repro,
2001-10-12,0.74, 5.42, 13.26, 2.13, 1.87, 8.30, repro,
2001-10-13,0.16, 4.54, 16.00, 2.00, 1.75, 7.83, repro,
2001-10-14,0.37, 5.31, 13.69, 2.02, 1.78, 7.96, repro,
2001-10-15,0.72, 4.56, 10.20, 2.09, 1.81, 8.13, repro,
2001-10-16,1.04, 3.99, -0.28, 2.09, 1.80, 8.17, repro,
2001-10-17,-0.08, 3.57, 13.53, 2.21, 1.94, 8.58, repro,
2001-10-18,1.29, 4.00, 12.05, 2.06, 1.73, 8.21, repro,
2001-10-19,0.89, 3.67, 15.24, 2.34, 2.00, 9.16, repro,
2001-10-20,1.06, 3.36, 13.57, 2.07, 1.75, 8.18, repro,
2001-10-21,0.14, 3.69, 14.95, 2.24, 1.91, 8.70, repro,
2001-10-22,-0.06, 2.32, 11.63, 2.09, 1.86, 8.25, repro,
2001-10-23,-0.40, 4.50, 14.42, 2.13, 1.84, 8.41, repro,
2001-10-24,0.78, 3.98, 15.20, 2.06, 1.78, 8.17, repro,
2001-10-25,0.14, 3.92, 6.66, 2.38, 2.09, 9.11, repro,
2001-10-26,0.39, 4.94, 5.51, 2.22, 1.90, 8.67, repro,
2001-10-27,2.14, 5.18, 10.24, 2.05, 1.77, 8.12, repro,
2001-10-28,1.16, 5.34, 15.55, 2.18, 2.11, 8.75, repro,
2001-10-29,-1.08, 3.50, 11.81, 2.11, 1.85, 8.34, repro,
2001-10-30,-0.65, 4.12, 5.44, 2.06, 1.84, 8.12, repro,
2001-10-31,2.85, 5.43, 11.43, 2.11, 1.83, 8.37, repro,
2001-11-01,-0.16, 4.67, 18.05, 2.05, 1.77, 8.10, repro,
2001-11-02,0.61, 4.63, 15.97, 2.04, 1.84, 7.96, repro,
2001-11-03,0.71, 3.44, 10.25, 2.19, 2.04, 8.80, repro,
2001-11-04,-0.43, 2.58, 10.51, 2.05, 1.79, 8.15, repro,
2001-11-05,1.41, 3.87, 14.69, 2.39, 2.19, 9.57, repro,
2001-11-06,0.29, 5.43, 10.56, 2.21, 1.97, 8.76, repro,
2001-11-07,-0.36, 3.82, 9.34, 2.04, 1.79, 8.07, repro,
2001-11-08,-1.20, 3.71, 11.35, 2.14, 1.89, 8.51, repro,
2001-11-09,0.61, 4.24, 9.22, 2.25, 1.98, 9.33, repro,
2001-11-10,0.64, 3.89, 10.20, 2.37, 2.14, 9.56, repro,
2001-11-11,1.24, 3.01, 10.15, 1.98, 1.73, 7.97, repro,
2001-11-12,0.15, 2.50, 6.80, 2.10, 1.89, 8.56, repro,
2001-11-13,-1.05, 2.83, 17.77, 2.14, 1.84, 8.68, repro,
2001-11-14,2.04, 5.95, 13.70, 2.08, 1.79, 8.45, repro,
2001-11-15,1.26, 3.35, 11.71, 2.04, 1.84, 8.35, repro,
2001-11-16,-1.18, 4.37, 14.39, 2.11, 1.93, 8.42, repro,
2001-11-17,0.44, 3.46, 10.68, 2.11, 1.85, 8.41, repro,
2001-11-18,-0.80, 4.57, 3.24, 2.07, 1.97, 8.45, repro,
2001-11-19,-0.23, 4.48, 5.59, 2.05, 1.83, 8.52, repro,
2001-11-20,-0.32, 4.35, 13.89, 2.28, 2.04, 9.25, repro,